Вернуться в каталог

FENGYUN 1C DEB

АктивенSSO
NORAD 30467·DEBRIS·🇨🇳 China

Запущен May 10, 1999 с Taiyuan Satellite Launch Center

Loading…

Ближайшие Пролёты (ближайшие 24 часа)

TLE

СвежийSource: Space-Track

Эпоха: Sep 14, 2026, 07:26 UTC

1 30467U 99025AGE 26257.30992078  .00001011  00000-0  50301-3 0  9990
2 30467  98.6567 283.1848 0064467  56.4282   5.3258 14.18117642 10707

Отслеживайте FENGYUN 1C DEB в реальном времени с AllMySat

Download on the App Store